{"data":{"norad_id":48621,"epoch":"2026-09-20T22:31:25.593888Z","epoch_age_seconds":56576,"freshness":"FRESH","line1":"1 48621U 21043A   26263.93849067 -.00000024  00000+0  52216-4 0  9992","line2":"2 48621  65.9979  66.3106 0010662 259.1329 100.8540 13.83375107269795","mean_motion":13.83375107,"eccentricity":0.0010662,"inclination_deg":65.9979,"raan_deg":66.3106,"arg_perigee_deg":259.1329,"mean_anomaly_deg":100.854,"bstar":5.2216e-5,"rev_number":26979,"period_min":104.093242152,"perigee_km":944.12467487066,"apogee_km":959.75533107179,"semimajor_km":7330.0770029712,"source":"CELESTRAK","updated_at":"2026-09-21T09:00:07.850994Z"}}